Location: Darlington Observatory
(36.4817°N, 105.8156°W)
Time: 02:34:28
(UTC-06:00)

NOSS 3-3 (A) - Visible Passes

Search period start: 05 May 2016 00:00
Search period end: 15 May 2016 00:00
Orbit: 934 x 1279 km, 63.4° (Epoch: 04 May)

Date Brightness Start Highest point End Pass type
(mag) Time Alt. Az. Time Alt. Az. Time Alt. Az.
05 May 6.8 04:38:11 10° N 04:43:58 24° NE 04:50:00 10° E visible
05 May 4.4 20:19:01 10° S 20:24:39 38° ESE 20:30:36 10° NE visible
05 May 5.6 22:09:49 10° WSW 22:15:31 36° NW 22:21:38 10° NNE visible
06 May 7.1 03:54:11 10° N 03:58:40 17° NE 04:03:19 10° ENE visible
06 May 4.7 21:24:33 10° SW 21:30:39 57° NW 21:37:12 10° NNE visible
06 May 7.0 23:20:20 10° WNW 23:23:13 13° NNW 23:26:13 10° N visible
07 May 7.3 03:10:44 10° N 03:13:12 12° NNE 03:15:43 10° NE visible
07 May 5.8 04:59:09 10° NNW 05:06:13 44° NE 05:13:39 10° ESE visible
07 May 4.0 20:39:46 10° SSW 20:45:59 89° ESE 20:52:37 10° NNE visible
07 May 6.7 22:33:29 10° W 22:37:52 19° NW 22:42:28 10° N visible
08 May 6.4 04:14:51 10° NNW 04:21:13 30° NE 04:27:53 10° ESE visible
08 May 6.1 21:47:23 10° WSW 21:52:42 28° NW 21:58:21 10° NNE visible
09 May 6.9 03:30:42 10° N 03:36:02 21° NE 03:41:35 10° E visible
09 May 4.7 05:20:30 10° NNW 05:28:03 83° ENE 05:36:01 10° SSE visible
09 May 5.4 21:01:50 10° WSW 21:07:43 42° NW 21:14:02 10° NNE visible
09 May 7.3 22:59:35 10° NW 23:00:43 10° NNW 23:01:52 10° NNW visible
10 May 7.2 02:46:50 10° N 02:50:41 15° NNE 02:54:38 10° ENE visible
10 May 5.3 04:35:58 10° NNW 04:43:18 56° NE 04:51:02 10° SE visible
10 May 4.5 20:16:45 10° SW 20:22:55 68° NW 20:29:33 10° NNE visible
10 May 7.1 22:11:40 10° WNW 22:15:14 15° NNW 22:18:55 10° N visible
11 May 7.4 02:04:12 10° NNE 02:05:07 10° NNE 02:06:05 10° NNE visible
11 May 5.9 03:51:34 10° NNW 03:58:24 38° NE 04:05:35 10° ESE visible
11 May 6.7 21:25:09 10° W 21:29:56 22° NW 21:35:00 10° N visible
12 May 6.5 03:07:19 10° NNW 03:13:20 26° NE 03:19:37 10° E visible
12 May 4.5 04:57:28 10° NW 05:05:00 77° WSW 05:12:57 10° SSE visible
12 May 6.1 20:39:16 10° WSW 20:44:51 32° NW 20:50:48 10° NNE visible
13 May 6.9 02:23:16 10° N 02:28:05 18° NE 02:33:05 10° ENE visible
13 May 4.8 04:12:50 10° NNW 04:20:20 72° ENE 04:28:14 10° SE visible
13 May 7.2 21:50:17 10° NW 21:52:40 12° NNW 21:55:07 10° N visible
14 May 7.2 01:39:36 10° N 01:42:40 13° NNE 01:45:47 10° NE visible
14 May 5.4 03:28:20 10° NNW 03:35:31 48° NE 03:43:05 10° SE visible
14 May 5.0 05:19:34 10° NW 05:26:24 38° WSW 05:33:32 10° S visible
14 May 6.9 21:03:10 10° WNW 21:07:16 17° NW 21:11:33 10° N visible
